TimeEDT,TemperatureF,Dew PointF,Humidity,Sea Level PressureIn,VisibilityMPH,Wind Direction,Wind SpeedMPH,Gust SpeedMPH,PrecipitationIn,Events,Conditions,WindDirDegrees,DateUTC
12:53 AM,71.1,41.0,34,30.03,10.0,North,9.2,18.4,N/A,,Overcast,360,2013-03-26 04:53:00
1:53 AM,70.0,37.9,31,30.02,10.0,North,13.8,24.2,0.00,,Overcast,360,2013-03-26 05:53:00
2:53 AM,66.9,36.0,32,30.01,10.0,North,15.0,24.2,0.00,Rain,Light Rain,350,2013-03-26 06:53:00
3:53 AM,68.0,37.9,33,30.01,10.0,North,11.5,20.7,0.00,,Overcast,360,2013-03-26 07:53:00
4:53 AM,66.9,33.1,28,30.01,10.0,North,15.0,26.5,0.01,,Overcast,360,2013-03-26 08:53:00
5:53 AM,64.9,36.0,34,30.02,10.0,North,12.7,25.3,N/A,,Overcast,360,2013-03-26 09:53:00
6:53 AM,63.0,39.9,43,30.04,10.0,North,15.0,25.3,N/A,,Mostly Cloudy,360,2013-03-26 10:53:00
7:53 AM,62.1,42.1,48,30.07,10.0,North,15.0,21.9,N/A,,Overcast,10,2013-03-26 11:53:00
8:53 AM,63.0,42.1,46,30.09,10.0,North,15.0,25.3,N/A,,Clear,10,2013-03-26 12:53:00
9:53 AM,64.0,45.0,50,30.11,10.0,North,11.5,21.9,N/A,,Mostly Cloudy,10,2013-03-26 13:53:00
10:53 AM,64.0,46.0,52,30.12,10.0,North,12.7,21.9,N/A,,Mostly Cloudy,360,2013-03-26 14:53:00
11:53 AM,64.9,44.1,47,30.14,10.0,North,10.4,18.4,N/A,,Mostly Cloudy,360,2013-03-26 15:53:00
12:53 PM,68.0,42.1,39,30.14,10.0,North,10.4,-,N/A,,Overcast,350,2013-03-26 16:53:00
2:53 PM,71.1,44.1,38,30.12,10.0,NW,16.1,25.3,N/A,,Clear,320,2013-03-26 18:53:00
3:53 PM,69.1,45.0,42,30.12,10.0,NW,16.1,27.6,N/A,,Clear,320,2013-03-26 19:53:00
4:53 PM,66.9,46.9,49,30.12,10.0,NW,18.4,32.2,N/A,,Clear,320,2013-03-26 20:53:00
5:53 PM,66.0,46.9,50,30.14,10.0,NW,17.3,28.8,N/A,,Clear,320,2013-03-26 21:53:00
6:53 PM,64.0,46.0,52,30.14,10.0,NNW,17.3,27.6,N/A,,Clear,330,2013-03-26 22:53:00
7:53 PM,63.0,48.0,58,30.17,10.0,NNW,17.3,29.9,N/A,,Clear,330,2013-03-26 23:53:00
8:53 PM,63.0,48.0,58,30.19,10.0,NW,18.4,27.6,N/A,,Clear,320,2013-03-27 00:53:00
9:53 PM,62.1,44.1,52,30.21,10.0,NNW,17.3,29.9,N/A,,Clear,330,2013-03-27 01:53:00
10:53 PM,61.0,44.1,54,30.22,10.0,NNW,13.8,24.2,N/A,,Clear,340,2013-03-27 02:53:00
11:53 PM,61.0,42.1,50,30.22,10.0,NNW,10.4,21.9,N/A,,Clear,340,2013-03-27 03:53:00